CST,Max TemperatureF,Mean TemperatureF,Min TemperatureF,Max Dew PointF,MeanDew PointF,Min DewpointF,Max Humidity, Mean Humidity, Min Humidity, Max Sea Level PressureIn, Mean Sea Level PressureIn, Min Sea Level PressureIn, Max VisibilityMiles, Mean VisibilityMiles, Min VisibilityMiles, Max Wind SpeedMPH, Mean Wind SpeedMPH, Max Gust SpeedMPH,PrecipitationIn, CloudCover, Events, WindDirDegrees
2014-1-1,31,25,19,23,20,17,92,81,69,30.19,30.14,30.10,10,6,1,16,8,22,0.21,5,Snow,22
2014-1-2,20,10,-1,16,8,-3,91,76,61,30.50,30.25,30.10,10,7,1,21,12,28,0.07,6,Snow,330
2014-1-3,22,8,-7,14,4,-9,91,79,67,30.52,30.32,29.99,10,10,5,35,14,45,0.00,1,,183
2014-1-4,38,30,22,28,22,13,92,76,59,30.00,29.96,29.91,10,10,6,25,13,32,0.00,3,,195
2014-1-5,28,13,-2,22,10,-10,91,77,62,30.30,30.02,29.90,10,3,0,36,18,46,0.90,7,Fog-Snow,343
2014-1-6,-2,-7,-13,-8,-18,-22,71,62,52,30.49,30.40,30.26,10,8,1,28,16,37,0.00,2,Snow,282
2014-1-7,14,3,-9,4,-6,-17,76,67,57,30.46,30.36,30.27,10,10,10,21,9,24,0.00,3,,188
2014-1-8,19,11,3,10,6,0,87,74,61,30.51,30.43,30.28,10,10,10,12,4,15,0.00,6,,25
2014-1-9,32,23,14,30,20,9,92,83,73,30.49,30.34,30.17,10,5,1,14,9,17,0.04,8,Snow,130
2014-1-10,42,37,32,42,36,30,100,95,89,30.15,29.84,29.53,10,6,2,26,15,33,0.49,8,Rain,165
2014-1-11,43,37,31,42,36,30,100,87,73,29.92,29.64,29.49,10,7,0,22,13,25,0.04,6,Fog-Snow,267
2014-1-12,48,37,25,48,34,24,100,80,60,29.94,29.80,29.64,10,10,8,32,17,41,0.00,0,,179
2014-1-13,51,40,28,43,33,25,100,73,45,29.87,29.72,29.58,10,10,10,23,11,29,0.00,0,,244
2014-1-14,41,34,26,34,25,14,85,71,56,30.05,29.86,29.73,10,9,1,29,14,37,0.08,5,Rain-Snow,261
2014-1-15,26,22,18,16,12,9,73,64,55,30.21,30.11,29.96,10,9,2,21,11,25,T,6,Snow,277
2014-1-16,43,32,20,30,22,9,85,69,53,29.92,29.75,29.62,10,8,1,35,15,46,0.06,7,Snow,227
2014-1-17,20,15,10,10,5,0,80,71,61,30.11,30.00,29.85,10,9,2,25,12,31,T,6,Snow,286
2014-1-18,35,23,11,32,20,7,89,70,50,30.06,29.80,29.62,10,8,1,24,11,30,0.04,7,Rain-Snow,228
2014-1-19,45,32,18,28,21,12,80,63,45,30.03,29.87,29.70,10,10,10,23,13,31,0.00,1,,239
2014-1-20,44,37,29,31,28,26,89,71,53,29.96,29.90,29.73,10,8,2,24,8,32,0.10,3,Rain-Snow,316
2014-1-21,31,18,4,25,7,-4,85,71,57,30.40,30.18,29.93,10,5,1,31,13,43,0.08,6,Snow,350
2014-1-22,25,15,4,13,5,-6,76,66,56,30.37,30.15,29.99,10,10,4,25,14,35,T,7,Snow,273
2014-1-23,11,5,-2,-5,-8,-11,72,61,50,30.76,30.63,30.38,10,10,10,23,13,30,0.00,1,,303
2014-1-24,35,16,-3,20,3,-8,72,52,32,30.68,30.19,29.67,10,10,10,33,15,45,T,2,Snow,211
2014-1-25,37,26,14,31,13,-2,82,56,29,29.99,29.79,29.60,10,10,5,36,15,45,T,4,Snow,291
2014-1-26,49,33,17,31,19,-7,69,56,42,30.01,29.67,29.55,10,10,4,41,18,55,T,5,Rain-Snow,260
2014-1-27,17,8,-1,-5,-8,-10,65,49,33,30.55,30.38,30.07,10,10,10,35,15,46,0.00,2,,313
2014-1-28,17,6,-6,-5,-7,-11,78,57,36,30.57,30.47,30.36,10,10,10,17,6,23,0.00,0,,256
2014-1-29,32,19,5,7,1,-4,69,48,26,30.35,30.25,30.08,10,10,10,22,11,29,0.00,0,,211
2014-1-30,41,32,22,24,13,8,69,48,27,30.05,29.91,29.76,10,10,8,32,16,43,T,3,Snow,210
2014-1-31,28,25,21,21,18,14,88,76,63,30.17,30.10,29.99,10,4,1,17,7,21,0.13,8,Snow,25